Tracking 23764 objects as of 17-Oct-2021
HD Live streaming from Space Station
objects crossing your sky now

CZ-3A DEB

Track CZ-3A DEB now!
10-day predictions


NORAD ID: 35549
Int'l Code: 2007-003H
Perigee: 294.5 km
Apogee: 23,753.7 km
Inclination: 23.9 °
Period: 413.8 minutes
Semi major axis: 18395 km
RCS: 0.2518 m2 (medium)
Launch date: February 2, 2007
Source: People's Republic of China (PRC)
Launch site: Xichang Space Center, China (XSC)

Note: This is SATELLITE DEBRIS
aabbcc
Your satellite tracking list
Your tracking list is empty




NASA's NSSDC Master Catalog

Two Line Element Set (TLE):
1 35549U 07003H   21289.59297899  .00015996  00000-0  44720-2 0  9995
2 35549  23.9332 143.1846 6376474 335.7650   4.3048  3.47976657133115
Source of the keplerian elements: AFSPC